Change the Weather History Date:

Tuesday, October 14, 2014

  Actual Average Record
Temperature  
Mean Temperature 50 °F -  
Max Temperature 51 °F 59 °F 83 °F (1958)
Min Temperature 48 °F 36 °F 23 °F (1977)
Degree Days  
Heating Degree Days 16    
Moisture  
Dew Point 48 °F    
Average Humidity 91    
Maximum Humidity 96    
Minimum Humidity 73    
Precipitation  
Precipitation 1.13 in - - ()
Sea Level Pressure  
Sea Level Pressure 29.70 in    
Wind  
Wind Speed 11 mph (North)    
Max Wind Speed 15 mph    
Max Gust Speed 24 mph    
Visibility 7 miles    
Events Rain    
Averages and records for this station are not official NWS values.
T = Trace of Precipitation, MM = Missing Value Source: NWS Daily Summary

Daily Weather History Graph

Daily Weather History Graph

Search for Another Location

Airport or City:

Trip Planner

Search our weather history database for the weather conditions in past years. The results will help you decide how hot, cold, wet, or windy it might be!

Date:

Astronomy

Oct. 14, 2014 Rise Set
Actual Time 7:16 AM CDT 6:20 PM CDT
Civil Twilight 6:47 AM CDT 6:49 PM CDT
Nautical Twilight 6:13 AM CDT 7:23 PM CDT
Astronomical Twilight 5:40 AM CDT 7:56 PM CDT
Moon 11:21 PM CDT (10/14) 1:23 PM CDT (10/14)
Length of Visible Light 12h 02m
Length of Day
11h 04m
Waning Gibbous, 61% of the Moon is Illuminated
Oct 14
Waning Gibbous
Oct 15
Last Quarter
Oct 23
New
Oct 30
First Quarter
Nov 6
Full

Hourly Weather History & Observations

Time (CDT) Temp. Dew Point Humidity Pressure Visibility Wind Dir Wind Speed Gust Speed Precip Events Conditions
12:15 AM 51.8 °F 50.2 °F 94% 29.58 in 5.0 mi North 11.5 mph - 0.03 in Rain Rain
12:30 AM 51.4 °F 50.2 °F 95% 29.59 in 4.0 mi North 9.2 mph 16.1 mph 0.09 in Rain Heavy Rain
12:55 AM 51.4 °F 50.4 °F 96% 29.57 in 4.0 mi North 11.5 mph 19.6 mph 0.16 in Rain Rain
1:15 AM 51.3 °F 50.2 °F 96% 29.57 in 3.0 mi North 12.7 mph - 0.10 in Rain Heavy Rain
1:35 AM 51.3 °F 50.2 °F 96% 29.57 in 5.0 mi North 13.8 mph 17.3 mph 0.17 in Rain Rain
1:50 AM 51.1 °F 50.0 °F 96% 29.56 in 7.0 mi North 9.2 mph 19.6 mph 0.19 in Rain Rain
2:10 AM 51.1 °F 50.0 °F 96% 29.57 in 5.0 mi North 10.4 mph 18.4 mph 0.03 in Rain Light Rain
2:30 AM 51.1 °F 50.0 °F 96% 29.57 in 5.0 mi North 10.4 mph 20.7 mph 0.04 in Rain Rain
2:55 AM 50.9 °F 49.6 °F 95% 29.57 in 5.0 mi North 12.7 mph 17.3 mph 0.06 in   Drizzle
3:15 AM 50.9 °F 49.5 °F 95% 29.58 in 5.0 mi North 10.4 mph 19.6 mph 0.01 in Rain Rain
3:35 AM 50.5 °F 49.3 °F 95% 29.58 in 5.0 mi North 12.7 mph 20.7 mph 0.03 in Rain Light Rain
3:55 AM 50.4 °F 49.1 °F 95% 29.57 in 5.0 mi North 11.5 mph 17.3 mph 0.05 in Rain Rain
4:10 AM 50.4 °F 49.1 °F 95% 29.57 in 5.0 mi North 12.7 mph 21.9 mph 0.01 in Rain Rain
4:35 AM 50.2 °F 48.7 °F 95% 29.57 in 7.0 mi North 12.7 mph 20.7 mph 0.02 in   Drizzle
4:55 AM 50.0 °F 48.6 °F 95% 29.58 in 10.0 mi North 11.5 mph 23.0 mph 0.02 in   Light Drizzle
5:15 AM 50.0 °F 48.6 °F 95% 29.59 in 10.0 mi North 10.4 mph 19.6 mph N/A   Light Drizzle
5:35 AM 50.0 °F 48.4 °F 94% 29.60 in 10.0 mi North 10.4 mph 21.9 mph 0.01 in   Drizzle
5:55 AM 49.6 °F 48.2 °F 95% 29.61 in 7.0 mi North 12.7 mph 17.3 mph 0.02 in   Drizzle
6:10 AM 49.3 °F 48.0 °F 95% 29.61 in 4.0 mi North 12.7 mph 17.3 mph 0.03 in Rain Rain
6:35 AM 49.1 °F 47.8 °F 95% 29.62 in 5.0 mi North 10.4 mph - 0.06 in Rain Rain
6:55 AM 49.1 °F 47.7 °F 95% 29.63 in 7.0 mi North 9.2 mph 20.7 mph 0.09 in Rain Rain
7:15 AM 48.9 °F 47.7 °F 95% 29.64 in 7.0 mi North 9.2 mph 17.3 mph 0.04 in Rain Rain
7:35 AM 48.7 °F 47.3 °F 95% 29.64 in 10.0 mi North 12.7 mph 18.4 mph 0.06 in Rain Rain
7:50 AM 48.7 °F 47.3 °F 95% 29.65 in 10.0 mi North 9.2 mph 23.0 mph 0.08 in Rain Light Rain
8:15 AM 48.6 °F 47.3 °F 95% 29.66 in 5.0 mi North 9.2 mph - 0.02 in Rain Rain
8:35 AM 48.6 °F 47.3 °F 95% 29.66 in 4.0 mi North 11.5 mph 19.6 mph 0.06 in Rain Rain
8:55 AM 48.6 °F 47.3 °F 95% 29.66 in 5.0 mi North 10.4 mph 18.4 mph 0.10 in Rain Rain
9:15 AM 48.7 °F 47.3 °F 95% 29.66 in 5.0 mi North 12.7 mph 21.9 mph 0.04 in Rain Rain
9:35 AM 49.1 °F 47.7 °F 95% 29.65 in 5.0 mi North 12.7 mph 23.0 mph 0.05 in Rain Light Rain
9:55 AM 49.3 °F 47.7 °F 94% 29.67 in 5.0 mi North 15.0 mph 21.9 mph 0.05 in Rain Light Rain
10:15 AM 49.3 °F 47.7 °F 94% 29.67 in 7.0 mi North 13.8 mph 23.0 mph N/A Rain Light Rain
10:55 AM 49.8 °F 48.2 °F 94% 29.65 in 4.0 mi NNE 12.7 mph 23.0 mph N/A   Overcast
11:15 AM 49.6 °F 47.7 °F 93% 29.69 in 7.0 mi NNE 15.0 mph 24.2 mph N/A   Overcast
11:35 AM 49.6 °F 48.2 °F 95% 29.69 in 5.0 mi North 11.5 mph 19.6 mph N/A   Overcast
11:55 AM 50.0 °F 48.4 °F 94% 29.69 in 3.0 mi NNE 12.7 mph 18.4 mph 0.01 in   Drizzle
12:15 PM 50.0 °F 48.6 °F 95% 29.69 in 3.0 mi North 11.5 mph 21.9 mph 0.01 in Rain Rain
12:35 PM 50.0 °F 48.6 °F 95% 29.67 in 4.0 mi North 13.8 mph 24.2 mph 0.02 in Rain Rain
12:55 PM 50.0 °F 48.6 °F 95% 29.66 in 4.0 mi North 15.0 mph 23.0 mph 0.02 in Rain Rain
1:15 PM 50.0 °F 48.4 °F 94% 29.67 in 4.0 mi North 11.5 mph 18.4 mph N/A   Light Drizzle
1:35 PM 50.0 °F 48.2 °F 94% 29.69 in 7.0 mi North 10.4 mph 24.2 mph N/A   Overcast
1:55 PM 50.2 °F 47.8 °F 92% 29.70 in 10.0 mi North 9.2 mph 19.6 mph N/A Rain Rain
2:20 PM 50.0 °F 48.2 °F 94% 29.70 in 5.0 mi North 12.7 mph 19.6 mph 0.04 in Rain Rain
2:35 PM 50.0 °F 48.2 °F 94% 29.71 in 4.0 mi North 11.5 mph 17.3 mph 0.06 in Rain Rain
2:55 PM 49.6 °F 48.2 °F 95% 29.72 in 4.0 mi North 8.1 mph - 0.11 in Rain Rain
3:15 PM 49.6 °F 48.2 °F 95% 29.73 in 5.0 mi North 11.5 mph 17.3 mph 0.02 in Rain Rain
3:35 PM 49.8 °F 48.4 °F 95% 29.74 in 5.0 mi NNW 10.4 mph - 0.05 in Rain Light Rain
3:55 PM 49.6 °F 48.4 °F 95% 29.75 in 4.0 mi North 11.5 mph 16.1 mph 0.06 in   Drizzle
4:15 PM 49.5 °F 48.4 °F 96% 29.76 in 3.0 mi North 10.4 mph 19.6 mph 0.02 in Rain Light Rain
4:35 PM 49.5 °F 48.2 °F 95% 29.77 in 3.0 mi North 8.1 mph - 0.02 in Rain Rain
4:55 PM 49.5 °F 48.2 °F 95% 29.78 in 5.0 mi North 6.9 mph - 0.05 in Rain Rain
5:15 PM 50.0 °F 47.7 °F 92% 29.78 in 7.0 mi North 6.9 mph - 0.02 in Rain Rain
5:35 PM 50.0 °F 47.5 °F 91% 29.79 in 7.0 mi North 3.5 mph - 0.04 in Rain Rain
5:55 PM 49.8 °F 47.5 °F 92% 29.80 in 10.0 mi North 5.8 mph - 0.05 in Rain Light Rain
6:15 PM 50.0 °F 47.5 °F 91% 29.81 in 10.0 mi North 4.6 mph - 0.01 in Rain Light Rain
6:35 PM 50.0 °F 47.3 °F 90% 29.82 in 10.0 mi North 4.6 mph - 0.01 in   Light Drizzle
6:55 PM 50.4 °F 47.3 °F 89% 29.83 in 10.0 mi North 3.5 mph - 0.01 in   Light Drizzle
7:15 PM 50.5 °F 46.8 °F 87% 29.83 in 10.0 mi North 5.8 mph - N/A   Overcast
7:35 PM 50.9 °F 46.0 °F 83% 29.84 in 10.0 mi North 8.1 mph - N/A   Overcast
7:55 PM 50.7 °F 45.3 °F 82% 29.84 in 10.0 mi North 6.9 mph - N/A Rain Light Rain
8:15 PM 50.9 °F 45.0 °F 80% 29.84 in 10.0 mi North 5.8 mph - N/A   Overcast
8:35 PM 51.3 °F 44.4 °F 77% 29.84 in 10.0 mi NNW 5.8 mph - N/A   Overcast
8:55 PM 50.7 °F 44.8 °F 80% 29.84 in 10.0 mi NW 3.5 mph - N/A   Overcast
9:15 PM 51.3 °F 43.7 °F 75% 29.84 in 10.0 mi NNW 10.4 mph - N/A   Overcast
10:00 PM 50.9 °F 42.8 °F 74% 29.84 in 10.0 mi North 9.2 mph - N/A   Mostly Cloudy
10:10 PM 50.9 °F 42.6 °F 73% 29.84 in 10.0 mi North 8.1 mph 16.1 mph N/A   Mostly Cloudy
10:40 PM 50.5 °F 42.4 °F 74% 29.83 in 10.0 mi North 8.1 mph - N/A   Scattered Clouds
11:00 PM 50.2 °F 42.1 °F 74% 29.82 in 10.0 mi North 8.1 mph - N/A   Mostly Cloudy
11:35 PM 48.2 °F 42.8 °F 82% 29.83 in 10.0 mi North 6.9 mph - N/A   Mostly Cloudy
11:55 PM 49.3 °F 41.5 °F 75% 29.82 in 10.0 mi North 5.8 mph - N/A   Overcast